Weather in Roissy-en-France

France     49°00′02″N   2°30′53″E
temp.,
°C
wind,
m/s
gust,
m/s
humid.,
%
clouds,
%
prec.,
mm/h
press.,
hPa
HPBL,
m
22 april, thu
thu2223:00+10nne512753 0.0 1019480
02:00+8nne512823 0.0 1021394
05:00+6ne410845 0.0 1021295
08:00+5ne410775 0.0 1022314
11:00+11ne57555 0.0 1024647
14:00+15ene56395 0.0 10241089
17:00+16ene56314 0.0 10231273
20:00+13ne58493 0.0 1024823
23 april, fri
fri2323:00+8ne412665 0.0 1026394
02:00+7ene310700 0.0 1026270
05:00+5ne39744 0.0 1026233
08:00+5ene39702 0.0 1027239
11:00+12ene57505 0.0 1027718
14:00+16ene56350 0.0 10261210
17:00+17ene56340 0.0 10241300
20:00+14ene47500 0.0 1024709
24 april, sat
sat2423:00+9ne37690 0.0 1025178
02:00+7ene39736 0.0 1024223
05:00+6ene37705 0.0 1024187
08:00+6ene396510 0.0 1024238
11:00+13ene474791 0.0 1023620
14:00+18ene55377 0.0 10221264
17:00+18ene5639100 0.0 10221416
20:00+15ne585683 0.0 1022788
25 april, sun
sun2523:00+10ne5116446 0.0 1023360
02:00+8ne5127063 0.0 1023343
05:00+6ne4117543 0.0 1023321
08:00+6ne5127369 0.0 1023371
11:00+12ene69546 0.0 1023754
14:00+16ene67423 0.0 10221214
17:00+17ene67405 0.0 10201501
20:00+13ne61053100 0.0 1019768
26 april, mon
mon2623:00+9ne51356100 0.0 1020402
02:00+7nne5126922 0.0 1019342
05:00+5nne4127388 0.0 1018306
08:00+5nne5127343 0.0 1017333
11:00+12ne58500 0.0 1016692
14:00+16ne67380 0.0 10141316
17:00+17ne56384 0.0 10111616
20:00+13nne585262 0.0 1011732